Other Surface Observations
Issued by NWS

Home | Current Version | Previous Version | Text Only | Print | Product List | Glossary On
Versions: 1 2 3 4 5 6 7 8 9 10 11 12 13 14 15 16 17 18 19 20 21 22 23 24 25 26 27 28 29 30 31 32 33 34 35 36 37 38 39 40 41 42 43 44 45 46 47 48 49 50
000
SXUS52 KTAE 251018
OSOTAE
OSOTAE
North Florida/South Alabama/Southwest Georgia Weather Roundup
National Weather Service Tallahassee Florida
500 AM EST SUN JAN 25 2015

Note: "fair" indicates few or no clouds below 12,000 feet with no
significant weather and/or obstructions to visibility.

!FLZ017-115-028-034-025-251100
...North Florida...

CITY           SKY/WX    TMP DP  RH WIND       PRES   REMARKS
TALLAHASSEE    CLEAR     32  27  81 CALM      30.06F
APALACHICOLA   CLEAR     45  34  65 N6        30.08R WCI  42
PERRY          CLEAR     33  33  99 CALM      30.08R
CROSS CITY       N/A     34  31  88 N3        30.06R
JACKSONVILLE   PTCLDY    38  36  92 NW5       30.03R WCI  34
$$

!FLZ112-006-005-002-011-251100
...Florida Panhandle...

CITY           SKY/WX    TMP DP  RH WIND       PRES   REMARKS
MARIANNA       CLEAR     32  31  96 CALM      30.07R
BONIFAY        FAIR      33  32  96 CALM      30.08R
PANAMA CITY NW FAIR      35  32  88 CALM      30.06S
TYNDALL AFB    CLEAR     37  37 100 NE2       30.07F
TYND DRONE APT FAIR      41  39  93 N2        30.06S
DE FUNIAK SPR  FAIR      37  32  84 CALM      30.06S
EGLIN AFB      CLEAR     35  32  88 N2        30.05F
DESTIN         CLEAR     43  39  86 CALM      30.05F
HURLBURT       CLEAR     35  32  88 N6        30.04F WCI  30
CRESTVIEW      CLEAR     28  27  96 CALM      30.06F
PENSACOLA      CLEAR     41  37  86 CALM      30.04F
$$

!ALZ063-066-251100
...South Alabama...

CITY           SKY/WX    TMP DP  RH WIND       PRES   REMARKS
DOTHAN         CLEAR     35  31  85 CALM      30.08S
OZARK CAIRNS   CLEAR     33  30  88 W2        30.05S
FT RUCKER HELI CLEAR     29  27  92 CALM      30.05R
RUCKER HELI 3  FAIR      34  33  94 W3        30.07R
RUCKER HELI 2  FAIR      30  28  92 CALM      30.05R
FLORALA APT    CLEAR     36  32  85 CALM      30.06S
ANDALUSIA      CLEAR     34  29  82 CALM      30.05S
TROY           CLEAR     33  30  88 W3        30.05R
EUFALA         FAIR      29  27  92 SW3       30.04R
MOBILE         CLEAR     38  36  92 W5        30.05F WCI  34
$$

!GAZ120>161-251100
...Southwest and South Central Georgia...

CITY           SKY/WX    TMP DP  RH WIND       PRES   REMARKS
THOMASVILLE    FAIR      36  36 100 CALM      30.06S
BAINBRIDGE     CLEAR     37  36  93 CALM      30.06S
MOODY AFB      CLEAR     36  32  85 W3        30.05R
VALDOSTA       CLEAR     34  33  96 CALM      30.05S
MOULTRIE       CLEAR     36  36 100 CALM      30.06R
BLAKELY        CLEAR     34  34 100 CALM      30.06S FOG
ALBANY         CLEAR     33  30  88 CALM      30.07S
TIFTON         FAIR      36  32  87 CALM      30.04R
FITZGERALD     FAIR      38  32  80 SW3       30.05S
CORDELE        FAIR      36  32  87 SW3       30.04S
AMERICUS       FAIR      34  32  93 SW5       30.04R WCI  30
HOMERVILLE     FAIR      37  36  93 CALM      30.05S
$$

!GMZ750-755-770-775-251100
...Coastal and Buoy Obs...

STATION/POSITION TIME  TEMP    WIND        PRES    VSBY  WAVE
                       AIR SEA DIR/SP/G                  HT/PER
                 (UTC) (F)     (DEG/KT/KT) (MB)    (MI)  (FT/S)
KEATON BEACH     1000   44     350/  3/  3 1018.4R
CEDAR KEY        1000   46     360/  5/  9 1018.3R
C TOWER          1000   52     350/ 13/ 15 1018.1R
APALACHICOLA BUO 1000   61 69  300/ 10/ 14 1017.9R         5/ 8
PANAMA CITY BUOY 0918   60 70  320/ 10/ 14 1018.3S         4/ 8
MOBILE BUOY      0915   56 70  300/ 16/ 19 1018.5F         5/ 5
ORANGE BCH AL BU 1000   55 65  280/ 16/ 17 1016.8F         4/ 8
$$



USA.gov is the U.S. government's official web portal to all federal, state and local government web resources and services.